Location: Meanaryar
(48.4161°N, 4.7315°W)
Time: 13:18:11
(UTC+00:00)

Cosmos 1125 Rocket - Visible Passes

Search period start: 16 January 2021 00:00
Search period end: 26 January 2021 00:00
Orbit: 757 x 780 km, 74.0° (Epoch: 15 January)

Date Brightness Start Highest point End Pass type
(mag) Time Alt. Az. Time Alt. Az. Time Alt. Az.
16 Jan 5.3 06:39:45 10° N 06:44:19 28° NE 06:48:51 10° ESE visible
17 Jan 5.8 06:03:17 10° N 06:07:06 19° NE 06:10:53 10° E visible
18 Jan 6.1 05:27:06 10° NNE 05:29:46 14° NE 05:32:24 10° ENE visible
18 Jan 4.0 07:07:40 10° NNW 07:12:58 64° ENE 07:18:14 10° SE visible
19 Jan 4.7 06:30:56 10° NNW 06:35:57 41° ENE 06:40:58 10° SE visible
20 Jan 5.4 05:54:18 10° N 05:58:50 28° NE 06:03:22 10° ESE visible
21 Jan 5.9 05:17:50 10° N 05:21:37 19° NE 05:25:24 10° E visible
21 Jan 3.5 06:59:04 10° NNW 07:04:24 83° WSW 07:09:43 10° SSE visible
22 Jan 6.2 04:41:40 10° NNE 04:44:17 14° NE 04:46:54 10° ENE visible
22 Jan 4.0 06:22:13 10° NNW 06:27:30 63° ENE 06:32:46 10° SE visible
23 Jan 4.7 05:45:28 10° NNW 05:50:29 41° ENE 05:55:30 10° SE visible
24 Jan 5.4 05:09:01 11° N 05:13:23 28° NE 05:17:54 10° ESE visible
24 Jan 3.7 06:50:36 10° NNW 06:55:45 53° WSW 07:00:54 10° S visible
25 Jan 5.9 04:33:07 13° N 04:36:10 19° NE 04:39:55 10° E visible
25 Jan 3.5 06:13:36 10° NNW 06:18:57 84° WSW 06:24:16 10° SSE visible
